Time,TemperatureF,DewpointF,PressureIn,WindDirection,WindDirectionDegrees,WindSpeedMPH,WindSpeedGustMPH,Humidity,HourlyPrecipIn,Conditions,Clouds,dailyrainin,SolarRadiationWatts/m^2,SoftwareType,DateUTC
2013-04-07 00:02:00,16.0,13.0,-100.00,SE,135,30.0,36.0,88,0.00,,,0.00,0.700000,,2013-04-07 08:02:00,
2013-04-07 00:12:00,16.0,13.0,-100.00,SE,135,30.0,36.0,88,0.00,,,0.00,0.700000,,2013-04-07 08:12:00,
2013-04-07 00:22:00,16.0,13.0,-100.00,SE,135,30.0,36.0,88,0.00,,,0.00,0.700000,,2013-04-07 08:22:00,
2013-04-07 00:32:00,16.0,13.0,-100.00,SE,135,30.0,36.0,88,0.00,,,0.00,0.700000,,2013-04-07 08:32:00,
2013-04-07 00:42:00,16.0,13.0,-100.00,SE,135,30.0,36.0,88,0.00,,,0.00,0.700000,,2013-04-07 08:42:00,
2013-04-07 01:02:00,15.0,12.0,-100.00,SE,136,29.0,46.0,87,0.00,,,0.00,0.700000,,2013-04-07 09:02:00,
2013-04-07 01:12:00,15.0,12.0,-100.00,SE,136,29.0,46.0,87,0.00,,,0.00,0.700000,,2013-04-07 09:12:00,
2013-04-07 01:22:00,15.0,12.0,-100.00,SE,136,29.0,46.0,87,0.00,,,0.00,0.700000,,2013-04-07 09:22:00,
2013-04-07 01:33:00,15.0,12.0,-100.00,SE,136,29.0,46.0,87,0.00,,,0.00,0.700000,,2013-04-07 09:33:00,
2013-04-07 01:42:00,15.0,12.0,-100.00,SE,136,29.0,46.0,87,0.00,,,0.00,0.700000,,2013-04-07 09:42:00,
2013-04-07 02:03:00,13.0,10.0,-100.00,SE,136,24.0,42.0,86,0.00,,,-99.99,0.700000,,2013-04-07 10:03:00,
2013-04-07 02:13:00,13.0,10.0,-100.00,SE,136,24.0,42.0,86,0.00,,,-99.99,0.700000,,2013-04-07 10:13:00,
2013-04-07 02:22:00,13.0,10.0,-100.00,SE,136,24.0,42.0,86,0.00,,,-99.99,0.700000,,2013-04-07 10:22:00,
2013-04-07 02:33:00,13.0,10.0,-100.00,SE,136,24.0,42.0,86,0.00,,,-99.99,0.700000,,2013-04-07 10:33:00,
2013-04-07 02:42:00,13.0,10.0,-100.00,SE,136,24.0,42.0,86,0.00,,,-99.99,0.700000,,2013-04-07 10:42:00,
2013-04-07 03:02:00,12.0,8.0,-100.00,SE,130,21.0,37.0,85,0.00,,,0.00,0.700000,,2013-04-07 11:02:00,
2013-04-07 03:12:00,12.0,8.0,-100.00,SE,130,21.0,37.0,85,0.00,,,0.00,0.700000,,2013-04-07 11:12:00,
2013-04-07 03:22:00,12.0,8.0,-100.00,SE,130,21.0,37.0,85,0.00,,,0.00,0.700000,,2013-04-07 11:22:00,
2013-04-07 03:32:00,12.0,8.0,-100.00,SE,130,21.0,37.0,85,0.00,,,0.00,0.700000,,2013-04-07 11:32:00,
2013-04-07 03:42:00,12.0,8.0,-100.00,SE,130,21.0,37.0,85,0.00,,,0.00,0.700000,,2013-04-07 11:42:00,
2013-04-07 04:02:00,11.0,6.0,-100.00,ESE,109,13.0,35.0,78,0.00,,,0.00,0.700000,,2013-04-07 12:02:00,
2013-04-07 04:12:00,11.0,6.0,-100.00,ESE,109,13.0,35.0,78,0.00,,,0.00,0.700000,,2013-04-07 12:12:00,
2013-04-07 04:22:00,11.0,6.0,-100.00,ESE,109,13.0,35.0,78,0.00,,,0.00,0.700000,,2013-04-07 12:22:00,
2013-04-07 04:33:00,11.0,6.0,-100.00,ESE,109,13.0,35.0,78,0.00,,,0.00,0.700000,,2013-04-07 12:33:00,
2013-04-07 04:42:00,11.0,6.0,-100.00,ESE,109,13.0,35.0,78,0.00,,,0.00,0.700000,,2013-04-07 12:42:00,
2013-04-07 05:03:00,10.0,6.0,-100.00,SE,125,6.0,40.0,82,0.00,,,0.00,0.700000,,2013-04-07 13:03:00,
2013-04-07 05:13:00,10.0,6.0,-100.00,SE,125,6.0,40.0,82,0.00,,,0.00,0.700000,,2013-04-07 13:13:00,
2013-04-07 05:22:00,10.0,6.0,-100.00,SE,125,6.0,40.0,82,0.00,,,0.00,0.700000,,2013-04-07 13:22:00,
2013-04-07 05:32:00,10.0,6.0,-100.00,SE,125,6.0,40.0,82,0.00,,,0.00,0.700000,,2013-04-07 13:32:00,
2013-04-07 05:42:00,10.0,6.0,-100.00,SE,125,6.0,40.0,82,0.00,,,0.00,0.700000,,2013-04-07 13:42:00,
2013-04-07 06:02:00,9.0,5.0,-100.00,WSW,254,4.0,21.0,84,0.00,,,0.00,0.700000,,2013-04-07 14:02:00,
2013-04-07 06:12:00,9.0,5.0,-100.00,WSW,254,4.0,21.0,84,0.00,,,0.00,0.700000,,2013-04-07 14:12:00,
2013-04-07 06:22:00,9.0,5.0,-100.00,WSW,254,4.0,21.0,84,0.00,,,0.00,0.700000,,2013-04-07 14:22:00,
2013-04-07 06:32:00,9.0,5.0,-100.00,WSW,254,4.0,21.0,84,0.00,,,0.00,0.700000,,2013-04-07 14:32:00,
2013-04-07 06:42:00,9.0,5.0,-100.00,WSW,254,4.0,21.0,84,0.00,,,0.00,0.700000,,2013-04-07 14:42:00,
2013-04-07 06:43:00,9.0,5.0,-100.00,SE,128,15.0,15.0,83,0.00,,,0.00,0.700000,,2013-04-07 14:43:00,
2013-04-07 07:02:00,9.0,5.0,-100.00,SE,128,15.0,15.0,83,0.00,,,0.00,0.700000,,2013-04-07 15:02:00,
2013-04-07 07:12:00,9.0,5.0,-100.00,SE,128,15.0,15.0,83,0.00,,,0.00,0.700000,,2013-04-07 15:12:00,
2013-04-07 07:22:00,9.0,5.0,-100.00,SE,128,15.0,15.0,83,0.00,,,0.00,0.700000,,2013-04-07 15:22:00,
2013-04-07 07:33:00,9.0,5.0,-100.00,SE,128,15.0,15.0,83,0.00,,,0.00,0.700000,,2013-04-07 15:33:00,
2013-04-07 08:03:00,9.0,5.0,-100.00,SE,131,20.0,26.0,82,0.00,,,0.00,16.400000,,2013-04-07 16:03:00,
2013-04-07 08:13:00,9.0,5.0,-100.00,SE,131,20.0,26.0,82,0.00,,,0.00,16.400000,,2013-04-07 16:13:00,
2013-04-07 08:23:00,9.0,5.0,-100.00,SE,131,20.0,26.0,82,0.00,,,0.00,16.400000,,2013-04-07 16:23:00,
2013-04-07 08:33:00,9.0,5.0,-100.00,SE,131,20.0,26.0,82,0.00,,,0.00,16.400000,,2013-04-07 16:33:00,
2013-04-07 08:42:00,9.0,5.0,-100.00,SE,131,20.0,26.0,82,0.00,,,0.00,16.400000,,2013-04-07 16:42:00,
2013-04-07 09:13:00,10.0,4.0,-100.00,SE,126,19.0,30.0,78,0.00,,,0.00,125.000000,,2013-04-07 17:13:00,
2013-04-07 09:22:00,10.0,4.0,-100.00,SE,126,19.0,30.0,78,0.00,,,0.00,125.000000,,2013-04-07 17:22:00,
2013-04-07 09:32:00,10.0,4.0,-100.00,SE,126,19.0,30.0,78,0.00,,,0.00,125.000000,,2013-04-07 17:32:00,
2013-04-07 09:42:00,10.0,4.0,-100.00,SE,126,19.0,30.0,78,0.00,,,0.00,125.000000,,2013-04-07 17:42:00,
2013-04-07 10:02:00,10.0,3.0,-100.00,SE,131,18.0,27.0,74,0.00,,,0.00,261.200012,,2013-04-07 18:02:00,
2013-04-07 10:13:00,10.0,3.0,-100.00,SE,131,18.0,27.0,74,0.00,,,0.00,261.200012,,2013-04-07 18:13:00,
2013-04-07 10:22:00,10.0,3.0,-100.00,SE,131,18.0,27.0,74,0.00,,,0.00,261.200012,,2013-04-07 18:22:00,
2013-04-07 10:32:00,10.0,3.0,-100.00,SE,131,18.0,27.0,74,0.00,,,0.00,261.200012,,2013-04-07 18:32:00,
2013-04-07 10:42:00,10.0,3.0,-100.00,SE,131,18.0,27.0,74,0.00,,,0.00,261.200012,,2013-04-07 18:42:00,
2013-04-07 11:02:00,9.0,2.0,-100.00,SE,136,17.0,24.0,74,0.00,,,0.00,364.899994,,2013-04-07 19:02:00,
2013-04-07 11:12:00,9.0,2.0,-100.00,SE,136,17.0,24.0,74,0.00,,,0.00,364.899994,,2013-04-07 19:12:00,
2013-04-07 11:22:00,9.0,2.0,-100.00,SE,136,17.0,24.0,74,0.00,,,0.00,364.899994,,2013-04-07 19:22:00,
2013-04-07 11:32:00,9.0,2.0,-100.00,SE,136,17.0,24.0,74,0.00,,,0.00,364.899994,,2013-04-07 19:32:00,
2013-04-07 11:42:00,9.0,2.0,-100.00,SE,136,17.0,24.0,74,0.00,,,0.00,364.899994,,2013-04-07 19:42:00,
2013-04-07 12:02:00,9.0,2.0,-100.00,SE,133,20.0,23.0,72,0.00,,,0.00,462.100006,,2013-04-07 20:02:00,
2013-04-07 12:13:00,9.0,2.0,-100.00,SE,133,20.0,23.0,72,0.00,,,0.00,462.100006,,2013-04-07 20:13:00,
2013-04-07 12:22:00,9.0,2.0,-100.00,SE,133,20.0,23.0,72,0.00,,,0.00,462.100006,,2013-04-07 20:22:00,
2013-04-07 12:32:00,9.0,2.0,-100.00,SE,133,20.0,23.0,72,0.00,,,0.00,462.100006,,2013-04-07 20:32:00,
2013-04-07 12:42:00,9.0,2.0,-100.00,SE,133,20.0,23.0,72,0.00,,,0.00,462.100006,,2013-04-07 20:42:00,
2013-04-07 12:43:00,10.0,1.0,-100.00,SE,134,15.0,31.0,66,0.00,,,0.00,451.100006,,2013-04-07 20:43:00,
2013-04-07 13:03:00,10.0,1.0,-100.00,SE,134,15.0,31.0,66,0.00,,,0.00,451.100006,,2013-04-07 21:03:00,
2013-04-07 13:22:00,10.0,1.0,-100.00,SE,134,15.0,31.0,66,0.00,,,0.00,451.100006,,2013-04-07 21:22:00,
2013-04-07 13:33:00,10.0,1.0,-100.00,SE,134,15.0,31.0,66,0.00,,,0.00,451.100006,,2013-04-07 21:33:00,
2013-04-07 14:03:00,13.0,3.0,-100.00,SW,224,11.0,27.0,61,0.00,,,0.00,687.900024,,2013-04-07 22:03:00,
2013-04-07 14:13:00,13.0,3.0,-100.00,SW,224,11.0,27.0,61,0.00,,,0.00,687.900024,,2013-04-07 22:13:00,
2013-04-07 14:23:00,13.0,3.0,-100.00,SW,224,11.0,27.0,61,0.00,,,0.00,687.900024,,2013-04-07 22:23:00,
2013-04-07 14:33:00,13.0,3.0,-100.00,SW,224,11.0,27.0,61,0.00,,,0.00,687.900024,,2013-04-07 22:33:00,
2013-04-07 14:42:00,13.0,3.0,-100.00,SW,224,11.0,27.0,61,0.00,,,0.00,687.900024,,2013-04-07 22:42:00,
2013-04-07 15:03:00,10.0,-4.0,-100.00,South,190,12.0,24.0,51,0.00,,,0.00,660.099976,,2013-04-07 23:03:00,
2013-04-07 15:12:00,10.0,-4.0,-100.00,South,190,12.0,24.0,51,0.00,,,0.00,660.099976,,2013-04-07 23:12:00,
2013-04-07 15:22:00,10.0,-4.0,-100.00,South,190,12.0,24.0,51,0.00,,,0.00,660.099976,,2013-04-07 23:22:00,
2013-04-07 15:32:00,10.0,-4.0,-100.00,South,190,12.0,24.0,51,0.00,,,0.00,660.099976,,2013-04-07 23:32:00,
2013-04-07 15:42:00,10.0,-4.0,-100.00,South,190,12.0,24.0,51,0.00,,,0.00,660.099976,,2013-04-07 23:42:00,
2013-04-07 16:02:00,9.0,-5.0,-100.00,WSW,253,9.0,19.0,53,0.00,,,0.00,631.700012,,2013-04-08 00:02:00,
2013-04-07 16:12:00,9.0,-5.0,-100.00,WSW,253,9.0,19.0,53,0.00,,,0.00,631.700012,,2013-04-08 00:12:00,
2013-04-07 16:22:00,9.0,-5.0,-100.00,WSW,253,9.0,19.0,53,0.00,,,0.00,631.700012,,2013-04-08 00:22:00,
2013-04-07 16:32:00,9.0,-5.0,-100.00,WSW,253,9.0,19.0,53,0.00,,,0.00,631.700012,,2013-04-08 00:32:00,
2013-04-07 16:42:00,9.0,-5.0,-100.00,WSW,253,9.0,19.0,53,0.00,,,0.00,631.700012,,2013-04-08 00:42:00,
2013-04-07 17:02:00,11.0,-5.0,-100.00,SW,223,6.0,19.0,49,0.00,,,0.00,562.900024,,2013-04-08 01:02:00,
2013-04-07 17:12:00,11.0,-5.0,-100.00,SW,223,6.0,19.0,49,0.00,,,0.00,562.900024,,2013-04-08 01:12:00,
2013-04-07 17:22:00,11.0,-5.0,-100.00,SW,223,6.0,19.0,49,0.00,,,0.00,562.900024,,2013-04-08 01:22:00,
2013-04-07 17:32:00,11.0,-5.0,-100.00,SW,223,6.0,19.0,49,0.00,,,0.00,562.900024,,2013-04-08 01:32:00,
2013-04-07 17:42:00,11.0,-5.0,-100.00,SW,223,6.0,19.0,49,0.00,,,0.00,562.900024,,2013-04-08 01:42:00,
2013-04-07 17:43:00,8.0,-13.0,-100.00,SSW,213,9.0,14.0,37,0.00,,,0.00,463.700012,,2013-04-08 01:43:00,
2013-04-07 18:02:00,8.0,-13.0,-100.00,SSW,213,9.0,14.0,37,0.00,,,0.00,463.700012,,2013-04-08 02:02:00,
2013-04-07 18:12:00,8.0,-13.0,-100.00,SSW,213,9.0,14.0,37,0.00,,,0.00,463.700012,,2013-04-08 02:12:00,
2013-04-07 18:22:00,8.0,-13.0,-100.00,SSW,213,9.0,14.0,37,0.00,,,0.00,463.700012,,2013-04-08 02:22:00,
2013-04-07 18:32:00,8.0,-13.0,-100.00,SSW,213,9.0,14.0,37,0.00,,,0.00,463.700012,,2013-04-08 02:32:00,
2013-04-07 18:43:00,8.0,-13.0,-100.00,SE,133,5.0,13.0,37,0.00,,,0.00,346.700012,,2013-04-08 02:43:00,
2013-04-07 19:14:00,8.0,-13.0,-100.00,SE,133,5.0,13.0,37,0.00,,,0.00,346.700012,,2013-04-08 03:14:00,
2013-04-07 19:23:00,8.0,-13.0,-100.00,SE,133,5.0,13.0,37,0.00,,,0.00,346.700012,,2013-04-08 03:23:00,
2013-04-07 19:33:00,8.0,-13.0,-100.00,SE,133,5.0,13.0,37,0.00,,,0.00,346.700012,,2013-04-08 03:33:00,
2013-04-07 19:43:00,7.0,-5.0,-100.00,SSE,151,9.0,10.0,57,0.00,,,0.00,236.800003,,2013-04-08 03:43:00,
2013-04-07 20:03:00,7.0,-5.0,-100.00,SSE,151,9.0,10.0,57,0.00,,,0.00,236.800003,,2013-04-08 04:03:00,
2013-04-07 20:12:00,7.0,-5.0,-100.00,SSE,151,9.0,10.0,57,0.00,,,0.00,236.800003,,2013-04-08 04:12:00,
2013-04-07 20:23:00,7.0,-5.0,-100.00,SSE,151,9.0,10.0,57,0.00,,,0.00,236.800003,,2013-04-08 04:23:00,
2013-04-07 20:33:00,7.0,-5.0,-100.00,SSE,151,9.0,10.0,57,0.00,,,0.00,236.800003,,2013-04-08 04:33:00,
2013-04-07 21:02:00,4.0,-4.0,-100.00,SE,131,10.0,14.0,69,0.00,,,0.00,91.199997,,2013-04-08 05:02:00,
2013-04-07 21:12:00,4.0,-4.0,-100.00,SE,131,10.0,14.0,69,0.00,,,0.00,91.199997,,2013-04-08 05:12:00,
2013-04-07 21:22:00,4.0,-4.0,-100.00,SE,131,10.0,14.0,69,0.00,,,0.00,91.199997,,2013-04-08 05:22:00,
2013-04-07 21:32:00,4.0,-4.0,-100.00,SE,131,10.0,14.0,69,0.00,,,0.00,91.199997,,2013-04-08 05:32:00,
2013-04-07 21:42:00,4.0,-4.0,-100.00,SE,131,10.0,14.0,69,0.00,,,0.00,91.199997,,2013-04-08 05:42:00,
2013-04-07 22:02:00,4.0,-1.0,-100.00,SSE,151,24.0,25.0,78,0.00,,,0.00,6.600000,,2013-04-08 06:02:00,
2013-04-07 22:12:00,4.0,-1.0,-100.00,SSE,151,24.0,25.0,78,0.00,,,0.00,6.600000,,2013-04-08 06:12:00,
2013-04-07 22:22:00,4.0,-1.0,-100.00,SSE,151,24.0,25.0,78,0.00,,,0.00,6.600000,,2013-04-08 06:22:00,
2013-04-07 22:32:00,4.0,-1.0,-100.00,SSE,151,24.0,25.0,78,0.00,,,0.00,6.600000,,2013-04-08 06:32:00,
2013-04-07 22:42:00,4.0,-1.0,-100.00,SSE,151,24.0,25.0,78,0.00,,,0.00,6.600000,,2013-04-08 06:42:00,
2013-04-07 23:02:00,4.0,-6.0,-100.00,SSE,151,21.0,27.0,61,0.00,,,0.00,0.700000,,2013-04-08 07:02:00,
2013-04-07 23:12:00,4.0,-6.0,-100.00,SSE,151,21.0,27.0,61,0.00,,,0.00,0.700000,,2013-04-08 07:12:00,
2013-04-07 23:22:00,4.0,-6.0,-100.00,SSE,151,21.0,27.0,61,0.00,,,0.00,0.700000,,2013-04-08 07:22:00,
2013-04-07 23:32:00,4.0,-6.0,-100.00,SSE,151,21.0,27.0,61,0.00,,,0.00,0.700000,,2013-04-08 07:32:00,
2013-04-07 23:42:00,4.0,-6.0,-100.00,SSE,151,21.0,27.0,61,0.00,,,0.00,0.700000,,2013-04-08 07:42:00,